|
Cosmos 1805 - Orbit
|
T. Spence Memorial Observatory;
16:34:56
| Home | Info | Passes |
|
View from above orbital plane
|
View from above satellite
|
Ground track
|
The orbit data is extracted from the following two-line orbital elements,
1 17191U 86097A 13141.29245059 .00002238 00000-0 15541-3 0 6200
2 17191 082.5033 046.8538 0012056 107.7854 252.4690 15.05043852439245
| Epoch (UTC): | 21 May 2013 07:01:07 |
| Eccentricity: | 0.0012056 |
| inclination: | 82.5033° |
| perigee height: | 543 km |
| apogee height: | 560 km |
| right ascension of ascending node: | 46.8538° |
| argument of perigee: | 107.7854° |
| revolutions per day: | 15.05043852 |
| mean anomaly at epoch: | 252.4690° |
| orbit number at epoch: | 43924 |
The dashed part of the orbit path shows where the satellite is in the earth's shadow,
|
|